| time (UTC) | temp F | wind direction | speed MPH | gust MPH | rain 1hr in | rain 24hr in | rain mn in | humidity % | barometer mb |
| 20260903092103 | 62 | 234 | 4.0 | 6.0 | 0.00 | 0.00 | 0.00 | 76 | 1010.1 |
| 20260903091042 | 61 | 267 | 3.0 | 5.0 | 0.00 | 0.00 | 0.00 | 77 | 1010.1 |
| 20260903090103 | 60 | 266 | 4.0 | 6.0 | 0.00 | 0.00 | 0.00 | 76 | 1010.1 |
| 20260903085043 | 60 | 203 | 0.0 | 1.0 | 0.00 | 0.00 | 0.00 | 77 | 1010.1 |
| 20260903084058 | 60 | 241 | 4.0 | 9.0 | 0.00 | 0.00 | 0.00 | 76 | 1010.1 |
| 20260903083024 | 60 | 259 | 8.0 | 9.0 | 0.00 | 0.00 | 0.00 | 76 | 1010.1 |
| 20260903082022 | 60 | 256 | 7.0 | 8.0 | 0.00 | 0.00 | 0.00 | 76 | 1010.1 |
| 20260903081023 | 60 | 266 | 8.0 | 10.0 | 0.00 | 0.00 | 0.00 | 77 | 1010.1 |
| 20260903080103 | 59 | 258 | 9.0 | 11.0 | 0.00 | 0.00 | 0.00 | 77 | 1010.1 |
| 20260903075043 | 59 | 283 | 5.0 | 8.0 | 0.00 | 0.00 | 0.00 | 78 | 1010.1 |
| 20260903074034 | 59 | 262 | 7.0 | 9.0 | 0.00 | 0.00 | 0.00 | 78 | 1010.1 |
| 20260903073043 | 58 | 242 | 5.0 | 7.0 | 0.00 | 0.00 | 0.00 | 78 | 1010.1 |
| 20260903072043 | 58 | 284 | 6.0 | 11.0 | 0.00 | 0.00 | 0.00 | 79 | 1010.1 |
| 20260903071024 | 57 | 282 | 7.0 | 10.0 | 0.00 | 0.00 | 0.00 | 79 | 1010.1 |
| 20260903070049 | 56 | 270 | 6.0 | 9.0 | 0.00 | 0.00 | 0.00 | 79 | 1010.1 |
| 20260903065044 | 55 | 263 | 8.0 | 8.0 | 0.00 | 0.00 | 0.00 | 80 | 1010.1 |
| 20260903064030 | 55 | 244 | 5.0 | 6.0 | 0.00 | 0.00 | 0.00 | 79 | 1010.1 |
| 20260903063222 | 55 | 255 | 5.0 | 8.0 | 0.00 | 0.00 | 0.00 | 80 | 1010.1 |
| 20260903062058 | 55 | 268 | 5.0 | 7.0 | 0.00 | 0.00 | 0.00 | 80 | 1011.1 |
| 20260903061028 | 54 | 253 | 4.0 | 6.0 | 0.00 | 0.00 | 0.00 | 80 | 1011.1 |
| 20260903060034 | 54 | 268 | 4.0 | 5.0 | 0.00 | 0.00 | 0.00 | 79 | 1011.1 |
| 20260903055105 | 53 | 274 | 1.0 | 3.0 | 0.00 | 0.00 | 0.00 | 79 | 1011.1 |
| 20260903054026 | 53 | 245 | 4.0 | 5.0 | 0.00 | 0.00 | 0.00 | 79 | 1011.1 |
| 20260903053028 | 52 | 245 | 3.0 | 4.0 | 0.00 | 0.00 | 0.00 | 79 | 1011.1 |
| 20260903052047 | 51 | 250 | 3.0 | 3.0 | 0.00 | 0.00 | 0.00 | 79 | 1011.1 |
| 20260903051044 | 51 | 281 | 4.0 | 6.0 | 0.00 | 0.00 | 0.00 | 78 | 1011.1 |
| 20260903050022 | 51 | 0.0 | 0.0 | 0.00 | 0.00 | 0.00 | 77 | 1011.1 | |
| 20260903045046 | 51 | 248 | 3.0 | 5.0 | 0.00 | 0.00 | 0.00 | 78 | 1011.1 |
| 20260903044044 | 51 | 248 | 5.0 | 6.0 | 0.00 | 0.00 | 0.00 | 78 | 1011.1 |
| 20260903043043 | 50 | 252 | 3.0 | 5.0 | 0.00 | 0.00 | 0.00 | 77 | 1011.1 |
| 20260903042043 | 50 | 0.0 | 0.0 | 0.00 | 0.00 | 0.00 | 75 | 1011.1 | |
| 20260903041043 | 50 | 248 | 0.0 | 3.0 | 0.00 | 0.00 | 0.00 | 75 | 1011.1 |
| 20260903040037 | 51 | 254 | 2.0 | 4.0 | 0.00 | 0.00 | 0.00 | 75 | 1011.1 |
| 20260903035103 | 51 | 248 | 2.0 | 3.0 | 0.00 | 0.00 | 0.00 | 74 | 1011.1 |
| 20260903034043 | 51 | 272 | 3.0 | 4.0 | 0.00 | 0.00 | 0.00 | 74 | 1011.1 |
| 20260903033035 | 51 | 255 | 3.0 | 3.0 | 0.00 | 0.00 | 0.00 | 73 | 1011.1 |
| 20260903032043 | 51 | 248 | 4.0 | 5.0 | 0.00 | 0.00 | 0.00 | 73 | 1011.1 |
| 20260903031037 | 51 | 281 | 2.0 | 3.0 | 0.00 | 0.00 | 0.00 | 73 | 1011.1 |
| 20260903030026 | 51 | 248 | 1.0 | 4.0 | 0.00 | 0.00 | 0.00 | 73 | 1011.1 |
| 20260903025024 | 52 | 268 | 4.0 | 6.0 | 0.00 | 0.00 | 0.00 | 73 | 1011.1 |
| 20260903024022 | 52 | 282 | 4.0 | 6.0 | 0.00 | 0.00 | 0.00 | 73 | 1011.1 |
| 20260903023023 | 52 | 264 | 3.0 | 4.0 | 0.00 | 0.00 | 0.00 | 73 | 1011.1 |
| 20260903022103 | 52 | 264 | 5.0 | 7.0 | 0.00 | 0.00 | 0.00 | 73 | 1011.1 |
| 20260903021043 | 52 | 248 | 5.0 | 6.0 | 0.00 | 0.00 | 0.00 | 72 | 1011.1 |
| 20260903020029 | 53 | 252 | 5.0 | 6.0 | 0.00 | 0.00 | 0.00 | 72 | 1011.1 |
| 20260903015044 | 53 | 264 | 5.0 | 6.0 | 0.00 | 0.00 | 0.00 | 72 | 1012.1 |
| 20260903014043 | 52 | 275 | 5.0 | 7.0 | 0.00 | 0.00 | 0.00 | 71 | 1012.1 |
| 20260903013043 | 53 | 258 | 6.0 | 8.0 | 0.00 | 0.00 | 0.00 | 71 | 1012.1 |
| 20260903012022 | 53 | 252 | 5.0 | 7.0 | 0.00 | 0.00 | 0.00 | 71 | 1012.1 |
| 20260903011104 | 54 | 256 | 9.0 | 13.0 | 0.00 | 0.00 | 0.00 | 70 | 1011.1 |
| 20260903010025 | 54 | 264 | 6.0 | 7.0 | 0.00 | 0.00 | 0.00 | 70 | 1011.1 |
| 20260903005042 | 54 | 267 | 9.0 | 9.0 | 0.00 | 0.00 | 0.00 | 71 | 1011.9 |
| 20260903004040 | 54 | 265 | 6.0 | 11.0 | 0.00 | 0.00 | 0.00 | 71 | 1012.1 |
| 20260903003104 | 54 | 248 | 4.0 | 6.0 | 0.00 | 0.00 | 0.00 | 72 | 1012.1 |
| 20260903002036 | 55 | 274 | 6.0 | 7.0 | 0.00 | 0.00 | 0.00 | 71 | 1011.1 |
| 20260903001034 | 55 | 290 | 8.0 | 11.0 | 0.00 | 0.00 | 0.00 | 72 | 1012.1 |
| 20260903000023 | 55 | 237 | 5.0 | 7.0 | 0.00 | 0.00 | 0.00 | 72 | 1012.1 |
| 20260902235043 | 55 | 300 | 4.0 | 5.0 | 0.00 | 0.00 | 0.00 | 73 | 1012.1 |
| 20260902234103 | 55 | 248 | 2.0 | 3.0 | 0.00 | 0.00 | 0.00 | 73 | 1012.1 |
| 20260902233023 | 55 | 244 | 4.0 | 7.0 | 0.00 | 0.00 | 0.00 | 73 | 1012.1 |
| 20260902232046 | 55 | 253 | 7.0 | 9.0 | 0.00 | 0.00 | 0.00 | 73 | 1012.1 |
| 20260902231043 | 55 | 243 | 6.0 | 8.0 | 0.00 | 0.00 | 0.00 | 74 | 1012.1 |
| 20260902230101 | 55 | 301 | 6.0 | 6.0 | 0.00 | 0.00 | 0.00 | 74 | 1012.1 |
| 20260902225054 | 55 | 261 | 9.0 | 10.0 | 0.00 | 0.00 | 0.00 | 74 | 1012.1 |
| 20260902224050 | 55 | 253 | 7.0 | 9.0 | 0.00 | 0.00 | 0.00 | 74 | 1012.1 |
| 20260902223035 | 55 | 248 | 7.0 | 8.0 | 0.00 | 0.00 | 0.00 | 74 | 1012.1 |
| 20260902221104 | 55 | 248 | 7.0 | 9.0 | 0.00 | 0.00 | 0.00 | 74 | 1012.1 |
| 20260902220043 | 55 | 241 | 7.0 | 8.0 | 0.00 | 0.00 | 0.00 | 74 | 1012.1 |
| 20260902215047 | 55 | 238 | 7.0 | 9.0 | 0.00 | 0.00 | 0.00 | 74 | 1012.1 |
| 20260902214043 | 55 | 260 | 9.0 | 11.0 | 0.00 | 0.00 | 0.00 | 74 | 1012.1 |
| 20260902213016 | 56 | 257 | 7.0 | 9.0 | 0.00 | 0.00 | 0.00 | 74 | 1012.1 |
| 20260902212044 | 56 | 248 | 7.0 | 9.0 | 0.00 | 0.00 | 0.00 | 74 | 1012.1 |
| 20260902211026 | 56 | 269 | 11.0 | 13.0 | 0.00 | 0.00 | 0.00 | 74 | 1012.1 |
| 20260902210024 | 56 | 248 | 9.0 | 10.0 | 0.00 | 0.00 | 0.00 | 74 | 1012.1 |
| 20260902205044 | 56 | 283 | 8.0 | 11.0 | 0.00 | 0.00 | 0.00 | 74 | 1012.1 |
| 20260902204102 | 56 | 270 | 6.0 | 6.0 | 0.00 | 0.00 | 0.00 | 74 | 1012.1 |
| 20260902203032 | 56 | 257 | 8.0 | 10.0 | 0.00 | 0.00 | 0.00 | 74 | 1012.1 |
| 20260902202016 | 56 | 259 | 7.0 | 7.0 | 0.00 | 0.00 | 0.00 | 74 | 1012.1 |
| 20260902201103 | 57 | 241 | 8.0 | 10.0 | 0.00 | 0.00 | 0.00 | 75 | 1012.1 |
| 20260902200043 | 56 | 254 | 6.0 | 9.0 | 0.00 | 0.00 | 0.00 | 74 | 1012.1 |
| 20260902195044 | 56 | 274 | 7.0 | 9.0 | 0.00 | 0.00 | 0.00 | 74 | 1012.1 |
| 20260902194022 | 57 | 267 | 9.0 | 10.0 | 0.00 | 0.00 | 0.00 | 74 | 1012.1 |
| 20260902193044 | 57 | 268 | 5.0 | 9.0 | 0.00 | 0.00 | 0.00 | 75 | 1012.1 |
| 20260902192043 | 57 | 248 | 9.0 | 10.0 | 0.00 | 0.00 | 0.00 | 74 | 1012.1 |
| 20260902191037 | 57 | 283 | 7.0 | 8.0 | 0.00 | 0.00 | 0.00 | 74 | 1012.1 |
| 20260902185040 | 57 | 248 | 8.0 | 9.0 | 0.00 | 0.00 | 0.00 | 74 | 1012.1 |
| 20260902184034 | 57 | 260 | 7.0 | 8.0 | 0.00 | 0.00 | 0.00 | 74 | 1012.1 |
| 20260902183103 | 57 | 269 | 6.0 | 8.0 | 0.00 | 0.00 | 0.00 | 74 | 1012.1 |
| 20260902182043 | 58 | 258 | 6.0 | 6.0 | 0.00 | 0.00 | 0.00 | 73 | 1012.1 |
| 20260902181043 | 58 | 260 | 6.0 | 9.0 | 0.00 | 0.00 | 0.00 | 73 | 1012.1 |
| 20260902180030 | 59 | 254 | 6.0 | 7.0 | 0.00 | 0.00 | 0.00 | 71 | 1012.1 |
| 20260902175042 | 59 | 251 | 6.0 | 8.0 | 0.00 | 0.00 | 0.00 | 70 | 1012.1 |
| 20260902174043 | 59 | 241 | 9.0 | 11.0 | 0.00 | 0.00 | 0.00 | 70 | 1012.1 |
| 20260902173043 | 60 | 266 | 5.0 | 6.0 | 0.00 | 0.00 | 0.00 | 69 | 1012.1 |
| 20260902172022 | 61 | 278 | 8.0 | 8.0 | 0.00 | 0.00 | 0.00 | 68 | 1012.1 |
| 20260902171046 | 61 | 248 | 9.0 | 12.0 | 0.00 | 0.00 | 0.00 | 67 | 1012.1 |
| 20260902170032 | 63 | 293 | 10.0 | 10.0 | 0.00 | 0.00 | 0.00 | 65 | 1012.1 |
| 20260902165016 | 64 | 285 | 7.0 | 9.0 | 0.00 | 0.00 | 0.00 | 63 | 1012.1 |
| 20260902164028 | 65 | 266 | 9.0 | 11.0 | 0.00 | 0.00 | 0.00 | 59 | 1012.1 |
| 20260902163043 | 67 | 280 | 5.0 | 6.0 | 0.00 | 0.00 | 0.00 | 57 | 1012.1 |
| 20260902162043 | 67 | 251 | 7.0 | 10.0 | 0.00 | 0.00 | 0.00 | 55 | 1012.1 |
| 20260902161024 | 71 | 279 | 9.0 | 12.0 | 0.00 | 0.00 | 0.00 | 51 | 1012.1 |
| 20260902160046 | 72 | 283 | 10.0 | 17.0 | 0.00 | 0.00 | 0.00 | 51 | 1012.1 |
| 20260902155043 | 72 | 276 | 9.0 | 11.0 | 0.00 | 0.00 | 0.00 | 51 | 1012.1 |
| 20260902154023 | 74 | 293 | 6.0 | 6.0 | 0.00 | 0.00 | 0.00 | 49 | 1012.1 |
| 20260902153043 | 74 | 234 | 11.0 | 15.0 | 0.00 | 0.00 | 0.00 | 49 | 1012.1 |
| 20260902152040 | 72 | 279 | 7.0 | 10.0 | 0.00 | 0.00 | 0.00 | 49 | 1012.1 |
| 20260902151023 | 72 | 272 | 8.0 | 9.0 | 0.00 | 0.00 | 0.00 | 49 | 1012.1 |
| 20260902150036 | 75 | 251 | 9.0 | 14.0 | 0.00 | 0.00 | 0.00 | 46 | 1012.1 |
| 20260902145024 | 76 | 253 | 8.0 | 11.0 | 0.00 | 0.00 | 0.00 | 47 | 1012.1 |
| 20260902144018 | 73 | 253 | 9.0 | 13.0 | 0.00 | 0.00 | 0.00 | 47 | 1012.1 |
| 20260902143016 | 72 | 293 | 8.0 | 9.0 | 0.00 | 0.00 | 0.00 | 48 | 1012.1 |
| 20260902142043 | 73 | 284 | 10.0 | 12.0 | 0.00 | 0.00 | 0.00 | 47 | 1012.1 |
| 20260902141016 | 71 | 270 | 5.0 | 6.0 | 0.00 | 0.00 | 0.00 | 51 | 1012.1 |
| 20260902140043 | 70 | 264 | 10.0 | 13.0 | 0.00 | 0.00 | 0.00 | 49 | 1012.1 |
| 20260902135044 | 72 | 278 | 10.0 | 12.0 | 0.00 | 0.00 | 0.00 | 48 | 1012.1 |
| 20260902134015 | 72 | 245 | 6.0 | 10.0 | 0.00 | 0.00 | 0.00 | 48 | 1012.1 |
| 20260902133103 | 70 | 259 | 7.0 | 10.0 | 0.00 | 0.00 | 0.00 | 48 | 1012.1 |
| 20260902132044 | 75 | 293 | 6.0 | 6.0 | 0.00 | 0.00 | 0.00 | 46 | 1012.1 |
| 20260902131043 | 76 | 285 | 7.0 | 8.0 | 0.00 | 0.00 | 0.00 | 46 | 1011.1 |
| 20260902130044 | 76 | 293 | 5.0 | 7.0 | 0.00 | 0.00 | 0.00 | 47 | 1011.1 |
| 20260902125044 | 73 | 270 | 8.0 | 10.0 | 0.00 | 0.00 | 0.00 | 44 | 1012.1 |
| 20260902124036 | 77 | 293 | 7.0 | 9.0 | 0.00 | 0.00 | 0.00 | 45 | 1012.1 |
| 20260902123034 | 77 | 259 | 8.0 | 13.0 | 0.00 | 0.00 | 0.00 | 44 | 1012.1 |
| 20260902121030 | 73 | 271 | 7.0 | 10.0 | 0.00 | 0.00 | 0.00 | 49 | 1012.1 |
| 20260902120043 | 69 | 266 | 7.0 | 11.0 | 0.00 | 0.00 | 0.00 | 50 | 1012.1 |
| 20260902115043 | 70 | 254 | 7.0 | 9.0 | 0.00 | 0.00 | 0.00 | 48 | 1012.1 |
| 20260902114043 | 73 | 278 | 8.0 | 11.0 | 0.00 | 0.00 | 0.00 | 50 | 1012.1 |
| 20260902113043 | 72 | 255 | 7.0 | 7.0 | 0.00 | 0.00 | 0.00 | 51 | 1012.1 |
| 20260902112024 | 71 | 271 | 6.0 | 9.0 | 0.00 | 0.00 | 0.00 | 51 | 1012.1 |
| 20260902111045 | 71 | 293 | 7.0 | 9.0 | 0.00 | 0.00 | 0.00 | 50 | 1012.1 |
| 20260902105039 | 68 | 248 | 9.0 | 10.0 | 0.00 | 0.00 | 0.00 | 56 | 1013.1 |
| 20260902104054 | 65 | 280 | 9.0 | 11.0 | 0.00 | 0.00 | 0.00 | 59 | 1013.1 |
| 20260902103043 | 64 | 265 | 8.0 | 10.0 | 0.00 | 0.00 | 0.00 | 59 | 1012.1 |
| 20260902102036 | 65 | 227 | 8.0 | 10.0 | 0.00 | 0.00 | 0.00 | 60 | 1012.9 |
| 20260902101043 | 65 | 273 | 11.0 | 13.0 | 0.00 | 0.00 | 0.00 | 60 | 1013.1 |
| 20260902100034 | 65 | 276 | 11.0 | 14.0 | 0.00 | 0.00 | 0.00 | 60 | 1012.1 |
| 20260902095031 | 65 | 281 | 6.0 | 9.0 | 0.00 | 0.00 | 0.00 | 63 | 1013.1 |
| 20260902094103 | 63 | 261 | 6.0 | 6.0 | 0.00 | 0.00 | 0.00 | 64 | 1013.1 |
| 20260902093045 | 63 | 277 | 8.0 | 11.0 | 0.00 | 0.00 | 0.00 | 64 | 1012.1 |